TimeCDT,TemperatureF,Dew PointF,Humidity,Sea Level PressureIn,VisibilityMPH,Wind Direction,Wind SpeedMPH,Gust SpeedMPH,PrecipitationIn,Events,Conditions,WindDirDegrees,DateUTC
12:54 AM,36.0,35.1,97,29.91,9.0,South,3.5,-,N/A,,Clear,190,2012-10-21 05:54:00
1:54 AM,35.1,34.0,96,29.93,3.0,Calm,Calm,-,N/A,,Clear,0,2012-10-21 06:54:00
2:54 AM,35.1,33.1,92,29.94,6.0,Calm,Calm,-,N/A,,Clear,0,2012-10-21 07:54:00
3:54 AM,34.0,33.1,96,29.93,5.0,Calm,Calm,-,N/A,,Clear,0,2012-10-21 08:54:00
4:54 AM,34.0,33.1,96,29.95,5.0,Calm,Calm,-,N/A,,Clear,0,2012-10-21 09:54:00
5:54 AM,33.1,32.0,96,29.95,8.0,Calm,Calm,-,N/A,,Clear,0,2012-10-21 10:54:00
6:54 AM,33.1,32.0,96,29.96,7.0,Calm,Calm,-,N/A,,Clear,0,2012-10-21 11:54:00
7:54 AM,33.1,32.0,96,29.98,6.0,Calm,Calm,-,N/A,,Clear,0,2012-10-21 12:54:00
8:54 AM,39.9,37.9,93,29.98,9.0,Calm,Calm,-,N/A,,Clear,0,2012-10-21 13:54:00
9:54 AM,45.0,39.9,82,29.99,10.0,South,8.1,-,N/A,,Clear,180,2012-10-21 14:54:00
10:54 AM,51.1,43.0,74,29.96,10.0,SSE,11.5,-,N/A,,Clear,160,2012-10-21 15:54:00
11:54 AM,55.9,43.0,62,29.96,10.0,SE,10.4,-,N/A,,Clear,140,2012-10-21 16:54:00
12:54 PM,57.9,43.0,58,29.94,10.0,South,15.0,-,N/A,,Clear,170,2012-10-21 17:54:00
1:54 PM,60.1,43.0,53,29.94,10.0,SE,11.5,-,N/A,,Clear,140,2012-10-21 18:54:00
2:54 PM,61.0,43.0,52,29.92,10.0,SE,12.7,-,N/A,,Clear,140,2012-10-21 19:54:00
3:54 PM,60.1,44.1,55,29.92,10.0,SE,10.4,-,N/A,,Clear,140,2012-10-21 20:54:00
4:54 PM,59.0,44.1,58,29.92,10.0,SE,11.5,-,N/A,,Clear,140,2012-10-21 21:54:00
5:54 PM,57.0,45.0,64,29.91,10.0,SE,10.4,-,N/A,,Clear,130,2012-10-21 22:54:00
6:54 PM,53.1,45.0,74,29.92,10.0,SE,9.2,-,N/A,,Clear,130,2012-10-21 23:54:00
7:54 PM,52.0,45.0,77,29.91,10.0,SE,5.8,-,N/A,,Clear,130,2012-10-22 00:54:00
8:54 PM,51.1,45.0,80,29.93,10.0,ENE,6.9,-,N/A,,Clear,70,2012-10-22 01:54:00
9:54 PM,51.1,46.0,83,29.94,10.0,NE,5.8,-,N/A,,Clear,50,2012-10-22 02:54:00
10:54 PM,48.0,44.1,86,29.96,10.0,East,3.5,-,N/A,,Clear,80,2012-10-22 03:54:00
11:54 PM,48.9,45.0,86,29.96,10.0,ENE,6.9,-,N/A,,Mostly Cloudy,70,2012-10-22 04:54:00